Greenwood, SC

12:12 AM EST on January 24, 2017 (GMT -0500)
Greenwood County

Weather History for KGRD - January, 2012

Change the Weather History Date:

Saturday, January 7, 2012

  Actual Average (KAND) Record (KAND)
Temperature  
Mean Temperature 58 °F -  
Max Temperature 70 °F 53 °F 70 °F (1982)
Min Temperature 46 °F 34 °F 8 °F (2014)
Degree Days  
Heating Degree Days 7    
Growing Degree Days 8 (Base 50)    
Moisture  
Dew Point 45 °F    
Average Humidity 66    
Maximum Humidity 90    
Minimum Humidity 46    
Precipitation  
Precipitation 0.07 in - - ()
Sea Level Pressure  
Sea Level Pressure 30.06 in    
Wind  
Wind Speed 8 mph (WSW)    
Max Wind Speed 18 mph    
Max Gust Speed 26 mph    
Visibility 10 miles    
Events Rain    
Averages and records for this station are not official NWS values.
T = Trace of Precipitation, MM = Missing Value Source: NWS Daily Summary

Daily Weather History Graph

Daily Weather History Graph

Search for Another Location

Airport or City:

Trip Planner

Search our weather history database for the weather conditions in past years. The results will help you decide how hot, cold, wet, or windy it might be!

Date:

Astronomy

Jan. 07, 2012 Rise Set
Actual Time 7:35 AM EST 5:34 PM EST
Civil Twilight 7:07 AM EST 6:01 PM EST
Nautical Twilight 6:36 AM EST 6:33 PM EST
Astronomical Twilight 6:06 AM EST 7:03 PM EST
Moon 4:18 PM EST (1/7) 6:04 AM EST (1/7)
Length of Visible Light 10h 54m
Length of Day
9h 59m
Waxing Gibbous, 97% of the Moon is Illuminated
Jan 7
Waxing Gibbous
Jan 9
Full
Jan 16
Last Quarter
Jan 23
New
Jan 30
First Quarter

Hourly Weather History & Observations

Time (EST) Temp. Dew Point Humidity Pressure Visibility Wind Dir Wind Speed Gust Speed Precip Events Conditions
12:56 AM 50.0 °F 30.0 °F 46% 30.04 in 10.0 mi WSW 6.9 mph - N/A   Clear
2:56 AM 50.0 °F 30.9 °F 48% 30.04 in 10.0 mi WSW 6.9 mph - N/A   Clear
3:56 AM 46.9 °F 32.0 °F 56% 30.03 in 10.0 mi WSW 5.8 mph - N/A   Mostly Cloudy
4:56 AM 50.0 °F 33.1 °F 52% 30.04 in 10.0 mi WSW 8.1 mph - N/A   Overcast
5:56 AM 50.0 °F 37.0 °F 61% 30.05 in 10.0 mi WSW 6.9 mph - N/A   Partly Cloudy
6:56 AM 50.0 °F 39.0 °F 66% 30.05 in 10.0 mi WSW 8.1 mph - N/A   Clear
7:56 AM 50.0 °F 39.9 °F 68% 30.06 in 10.0 mi WSW 8.1 mph - N/A   Mostly Cloudy
8:56 AM 53.1 °F 42.1 °F 66% 30.07 in 10.0 mi SW 10.4 mph - N/A   Clear
9:56 AM 57.0 °F 46.0 °F 67% 30.08 in 10.0 mi SW 11.5 mph - N/A   Clear
10:56 AM 62.1 °F 48.9 °F 62% 30.08 in 10.0 mi West 12.7 mph 18.4 mph N/A   Clear
1:56 PM 69.1 °F 51.1 °F 53% 30.01 in 10.0 mi SW 11.5 mph 18.4 mph N/A   Clear
2:56 PM 70.0 °F 51.1 °F 51% 30.02 in 10.0 mi SW 13.8 mph 20.7 mph N/A   Clear
3:56 PM 66.9 °F 52.0 °F 59% 30.04 in 10.0 mi SW 18.4 mph 26.5 mph N/A   Mostly Cloudy
4:56 PM 64.9 °F 52.0 °F 63% 30.04 in 10.0 mi West 8.1 mph 16.1 mph N/A   Clear
5:56 PM 61.0 °F 52.0 °F 72% 30.06 in 10.0 mi WSW 6.9 mph - N/A   Clear
6:56 PM 60.1 °F 52.0 °F 75% 30.07 in 10.0 mi WSW 9.2 mph - N/A   Overcast
7:56 PM 60.1 °F 52.0 °F 75% 30.09 in 10.0 mi WSW 8.1 mph - N/A   Clear
8:56 PM 59.0 °F 52.0 °F 78% 30.11 in 10.0 mi WSW 5.8 mph - N/A   Mostly Cloudy
9:56 PM 57.0 °F 53.1 °F 87% 30.13 in 6.0 mi West 9.2 mph - 0.03 in Rain Rain
10:56 PM 55.0 °F 52.0 °F 89% 30.12 in 10.0 mi West 5.8 mph - 0.04 in   Mostly Cloudy
11:56 PM 54.0 °F 51.1 °F 90% 30.12 in 10.0 mi WSW 4.6 mph - N/A   Clear